#timestamp,LO_Frequency,Hit,StdDev 
1569063615.1,286046998.3,N
1569063616.0,286046998.3,N
1569063635.8,286046998.7,N
1569063655.7,286046999.0,N
1569063675.5,286047001.2,N
1569063695.3,286047001.1,N
1569063715.2,286047000.0,N
1569063735.0,286047001.2,N
1569063735.9,286047001.2,N
1569063755.8,286047001.1,N
1569063775.6,286046998.2,N
1569063795.4,286046999.0,N
1569063815.3,286046998.3,N
1569063835.1,286046999.0,N
1569063855.8,286046996.8,N
1569063875.7,286046999.2,N
1569063895.5,286046999.6,N
1569063915.4,286046999.0,N
1569063935.2,286046998.7,N
1569063955.0,286046997.1,N
1569063955.9,286046997.1,N
1569063975.8,286046999.5,N
1569063995.6,286046997.9,N
1569064015.5,286046997.9,N
1569064035.3,286046996.7,N
1569064055.1,286046999.3,N
1569064075.9,286046999.0,N
1569064095.7,286046999.3,N
1569064115.5,286046998.7,N
1569064135.4,286046998.7,N
1569064155.2,286046998.1,N
1569064175.1,286047001.1,N
1569064176.0,286047001.1,N
1569064195.8,286047001.1,N
1569064215.6,286047000.6,N
1569064235.5,286047000.6,N
1569064255.3,286047000.4,N
1569064275.2,286047001.1,N
1569064295.0,286047001.1,N
1569064295.9,286047001.1,N
1569064315.8,286046998.3,N
1569064335.6,286046998.7,N
1569064355.4,286046998.7,N
1569064375.3,286046998.7,N
1569064395.1,286046999.4,N
1569064415.8,286046997.5,N
1569064435.7,286046996.9,N
1569064455.5,286046996.7,N
1569064475.4,286046997.4,N
1569064495.2,286046999.5,N
1569064515.0,286046999.4,N
1569064515.9,286046999.4,N
1569064535.8,286046997.8,N
1569064555.6,286046997.4,N
1569064575.5,286046997.2,N
1569064595.3,286046995.2,Y
1569064615.1,286046997.9,P
1569064635.9,286046997.6,P
1569064655.7,286046999.6,N
1569064675.6,286046996.8,Y
1569064695.4,286047000.4,P
1569064715.2,286047000.0,N
1569064735.1,286046999.8,N
1569064736.0,286046999.8,N
1569064755.8,286046999.9,N
1569064775.7,286047002.3,Y
1569064795.5,286047000.1,P
1569064815.3,286047000.0,N
1569064835.2,286047000.3,N
1569064855.0,286047000.5,N
1569064855.9,286047000.5,N
1569064875.8,286047000.5,N
1569064895.6,286047000.6,N
1569064915.4,286046999.8,N
1569064935.3,286047000.5,N
1569064955.1,286047000.9,N
1569064975.9,286046998.1,Y
1569064995.7,286047001.2,P
1569065015.5,286047001.0,N
1569065035.4,286046998.4,P
1569065055.2,286046999.4,N
1569065075.0,286046999.0,N
1569065075.9,286046999.0,N
1569065095.8,286046999.4,N
1569065115.6,286046998.4,N
1569065135.5,286047001.0,N
1569065155.3,286047002.7,N
1569065175.1,286047002.1,N
1569065195.9,286047003.8,N
1569065215.7,286047005.4,Y
1569065235.6,286047004.7,P
1569065255.4,286047003.3,N
1569065275.2,286047003.9,N
1569065295.1,286047002.0,N
1569065296.0,286047002.0,N
1569065315.8,286047002.2,N
1569065335.6,286047001.9,N
1569065355.5,286046999.7,N
1569065375.3,286047000.1,N
1569065395.2,286047002.0,N
1569065415.9,286047002.3,N
1569065435.7,286047000.4,N
1569065455.6,286046998.5,N
1569065475.4,286047000.7,N
1569065495.2,286047000.1,N
1569065515.1,286047001.9,N
1569065516.0,286047001.9,N
1569065535.8,286047002.7,N
1569065555.7,286047002.6,N
1569065575.5,286047001.9,N
1569065595.3,286047002.6,N
1569065615.2,286047002.4,N
1569065635.0,286047001.8,N
1569065635.9,286047001.8,N
1569065655.8,286047001.3,N
1569065675.6,286047001.3,N
1569065695.4,286047005.8,Y
1569065715.3,286047000.2,P
1569065735.1,286047002.7,P
1569065755.9,286047002.6,N
1569065775.7,286047002.8,N
1569065795.5,286047002.3,N
1569065815.4,286047004.3,Y
1569065835.2,286047000.0,P
1569065855.0,286047000.0,N
1569065856.0,286047000.0,N
1569065875.8,286047000.7,N
1569065895.6,286046998.2,N
1569065915.5,286046999.0,N
1569065935.3,286046999.6,N
1569065955.1,286046996.8,Y
1569065975.9,286046999.4,P
1569065995.7,286046998.9,P
1569066015.6,286046997.1,P
1569066035.4,286046999.1,N
1569066055.2,286046998.2,N
1569066075.1,286046998.5,N
1569066076.0,286046998.5,N
1569066095.8,286046999.6,N
1569066115.7,286046996.6,Y
1569066135.5,286047000.7,P
1569066155.3,286047000.7,N
1569066175.2,286047001.6,N
1569066195.0,286047004.4,Y
1569066195.9,286047004.4,P
1569066215.8,286047004.0,N
1569066235.6,286047004.3,N
1569066255.4,286047002.4,N
1569066275.3,286047002.5,N
1569066295.1,286047002.2,N
1569066315.8,286047002.5,N
1569066335.7,286047002.2,N
1569066355.7,286047000.9,N
1569066375.6,286047000.9,N
1569066395.4,286047000.8,N
1569066415.2,286047001.0,N
1569066435.1,286047002.5,N
1569066436.0,286047002.5,N
1569066455.8,286047001.5,N
1569066475.7,286047001.6,N
1569066495.5,286047003.9,Y
1569066515.3,286047002.8,P
1569066535.2,286047002.2,P
1569066555.0,286046999.7,N
1569066555.9,286046999.7,N
1569066575.8,286046999.8,N
1569066595.6,286046999.8,N
1569066615.4,286047002.8,N
1569066635.3,286047000.1,N
1569066655.1,286047000.4,N
1569066675.9,286047000.3,N
1569066695.7,286047001.2,N
1569066715.5,286046998.4,N
1569066735.4,286046998.1,N
1569066755.2,286047000.4,N
1569066775.0,286047000.5,N
1569066775.9,286047000.5,N
1569066795.8,286047000.4,N
1569066815.6,286046999.9,N
1569066835.5,286047001.1,N
1569066855.3,286047001.1,N
1569066875.1,286047000.3,N
1569066895.9,286046998.3,N
1569066915.7,286047002.4,N
1569066935.5,286046999.7,N
1569066955.4,286046999.8,N
1569066975.2,286047000.5,N
1569066995.1,286046998.1,N
1569066996.0,286046998.1,N
1569067015.8,286047001.1,N
1569067035.6,286046998.9,N
1569067055.5,286046997.2,N
1569067075.3,286046999.6,N
1569067095.1,286046996.6,N
1569067115.9,286046998.4,N
1569067135.7,286046998.3,N
1569067155.6,286046998.8,N
1569067175.4,286046998.6,N
1569067195.2,286046999.4,N
